Reno, NV

3:31 AM PST on December 10, 2019 (GMT -0800)
Reno-Tahoe International

Weather History for KRNO - August, 2019

Change the Weather History Date:

Thursday, August 1, 2019

  Actual Average Record
Temperature  
Mean Temperature 76 °F 76 °F  
Max Temperature 95 °F 93 °F 103 °F (2000)
Min Temperature 57 °F 58 °F 36 °F (1942)
Degree Days  
Heating Degree Days 0 0  
Month to date heating degree days 0 0  
Since 1 June heating degree days 15 61  
Since 1 July heating degree days 0 5  
Cooling Degree Days 11 11  
Month to date cooling degree days 12 11  
Year to date cooling degree days 603 498  
Since 1 June cooling degree days 589 461  
Growing Degree Days 26 (Base 50)    
Moisture  
Dew Point 35 °F    
Average Humidity 24    
Maximum Humidity 51    
Minimum Humidity 12    
Precipitation  
Precipitation 0.00 in 0.01 in 0.41 in (1976)
Month to date precipitation 0.00 0.01  
Year to date precipitation 8.76 4.47  
Snow  
Snow 0.00 in 0.00 in 0.00 in ()
Month to date snowfall 0.0 0.0  
Since 1 June snowfall 0.0 T  
Since 1 July snowfall 0.0 0.0  
Snow Depth 0.00 in    
Sea Level Pressure  
Sea Level Pressure 29.95 in    
Wind  
Wind Speed 6 mph ()    
Max Wind Speed 26 mph    
Max Gust Speed 34 mph    
Visibility 10.0 miles    
Events      
T = Trace of Precipitation, MM = Missing Value Source: Averaged Metar Reports

Daily Weather History Graph

Daily Weather History Graph

Search for Another Location

Airport or City:

Astronomy

Aug. 01, 2019 Rise Set
Actual Time 5:58 AM PDT 8:11 PM PDT
Civil Twilight 5:28 AM PDT 8:41 PM PDT
Nautical Twilight 4:51 AM PDT 9:18 PM PDT
Astronomical Twilight 4:11 AM PDT 9:58 PM PDT
Moon 6:29 AM PDT (8/1) 9:02 PM PDT (8/1)
Length of Visible Light 15h 13m
Length of Day
14h 13m
New Moon, 1% of the Moon is Illuminated
Aug 1
New Moon
Aug 7
First Quarter
Aug 15
Full
Aug 23
Last Quarter
Aug 30
New

Hourly Weather History & Observations

Time (PDT) Temp. Dew Point Humidity Pressure Visibility Wind Dir Wind Speed Gust Speed Precip Events Conditions
12:55 AM 69.1 °F 36.0 °F 30% 29.95 in 10.0 mi East 3.5 mph - N/A   Clear
1:55 AM 69.1 °F 35.1 °F 29% 29.95 in 10.0 mi West 5.8 mph - N/A   Clear
2:55 AM 63.0 °F 37.9 °F 40% 29.95 in 10.0 mi Calm Calm - N/A   Clear
3:55 AM 64.9 °F 35.1 °F 33% 29.96 in 10.0 mi Variable 3.5 mph - N/A   Clear
4:55 AM 60.1 °F 37.9 °F 44% 29.97 in 10.0 mi SSE 3.5 mph - N/A   Partly Cloudy
5:55 AM 57.9 °F 39.0 °F 49% 29.99 in 10.0 mi South 4.6 mph - N/A   Scattered Clouds
6:55 AM 61.0 °F 37.9 °F 42% 30.01 in 10.0 mi Calm Calm - N/A   Scattered Clouds
7:55 AM 66.9 °F 35.1 °F 31% 30.01 in 10.0 mi WNW 3.5 mph - N/A   Partly Cloudy
8:55 AM 70.0 °F 36.0 °F 29% 30.01 in 10.0 mi Variable 3.5 mph - N/A   Partly Cloudy
9:55 AM 75.0 °F 35.1 °F 23% 30.00 in 10.0 mi SSW 3.5 mph - N/A   Partly Cloudy
10:55 AM 81.0 °F 36.0 °F 20% 29.99 in 10.0 mi Variable 4.6 mph - N/A   Clear
11:55 AM 84.9 °F 30.9 °F 14% 29.97 in 10.0 mi ENE 3.5 mph - N/A   Partly Cloudy
12:55 PM 86.0 °F 30.9 °F 14% 29.96 in 10.0 mi Variable 4.6 mph - N/A   Partly Cloudy
1:55 PM 90.0 °F 32.0 °F 13% 29.93 in 10.0 mi Variable 3.5 mph - N/A   Partly Cloudy
2:55 PM 93.0 °F 33.1 °F 12% 29.91 in 10.0 mi Variable 3.5 mph - N/A   Partly Cloudy
3:55 PM 93.0 °F 34.0 °F 12% 29.88 in 10.0 mi WNW 13.8 mph 19.6 mph N/A   Partly Cloudy
4:55 PM 91.9 °F 39.0 °F 16% 29.89 in 10.0 mi WNW 16.1 mph - N/A   Partly Cloudy
5:55 PM 89.1 °F 39.0 °F 17% 29.90 in 10.0 mi WNW 17.3 mph 25.3 mph N/A   Partly Cloudy
6:55 PM 86.0 °F 39.0 °F 19% 29.90 in 10.0 mi WNW 21.9 mph 29.9 mph N/A   Partly Cloudy
7:55 PM 82.0 °F 37.0 °F 20% 29.91 in 10.0 mi WNW 20.7 mph 26.5 mph N/A   Partly Cloudy
8:55 PM 79.0 °F 35.1 °F 20% 29.94 in 10.0 mi West 16.1 mph 24.2 mph N/A   Partly Cloudy
9:55 PM 77.0 °F 33.1 °F 20% 29.95 in 10.0 mi WNW 17.3 mph 25.3 mph N/A   Partly Cloudy
10:55 PM 75.9 °F 32.0 °F 20% 29.95 in 10.0 mi WNW 16.1 mph - N/A   Clear
11:55 PM 73.0 °F 28.9 °F 20% 29.98 in 10.0 mi Calm Calm - N/A   Clear